Simultaneous Nadir Overpasses (SNOs) Predictions

Prediction of SNOs between NOAA-19 and METOP-C Satellite Orbit:

Table of predicted SNOs for the next 14.0 days since TLE Epoch: 2/5/2022
Index Date (NOAA-19) Time (NOAA-19) Lat,Lon (NOAA-19) SZA (NOAA-19 ) Date (METOP-C) Time (METOP-C) Lat,Lon (METOP-C) SZA (METOP-C ) Distance(km) Time Diff (sec)
1 02/06/2022 05:15:25 -80.75, -46.92 82.60 02/06/2022 05:16:38 -80.75, -47.01 82.58 1.64 73
2 02/06/2022 06:06:30 80.75, 120.43 97.40 02/06/2022 06:07:18 80.75, 120.32 97.41 2.12 48
3 02/06/2022 06:57:25 -80.75, -72.38 82.62 02/06/2022 06:58:00 -80.74, -72.49 82.62 2.09 35
4 02/06/2022 07:48:30 80.75, 94.97 97.38 02/06/2022 07:48:40 80.74, 94.83 97.37 2.53 10
5 02/06/2022 08:39:25 -80.75, -97.84 82.64 02/06/2022 08:39:22 -80.74, -97.97 82.66 2.79 3
6 02/06/2022 09:30:30 80.75, 69.51 97.36 02/06/2022 09:30:02 80.74, 69.35 97.33 3.19 28
7 02/06/2022 10:21:25 -80.75,-123.30 82.66 02/06/2022 10:20:43 -80.75,-123.11 82.66 3.34 42
8 02/06/2022 11:12:30 80.74, 44.06 97.34 02/06/2022 11:11:23 80.75, 44.21 97.33 2.76 67
9 02/17/2022 09:51:37 -80.76,-116.06 86.29 02/17/2022 09:52:44 -80.75,-116.04 86.27 1.33 67
10 02/17/2022 10:42:42 80.76, 51.26 93.71 02/17/2022 10:43:23 80.76, 51.41 93.73 2.73 41
11 02/17/2022 11:33:36 -80.75,-141.16 86.29 02/17/2022 11:34:05 -80.76,-141.18 86.27 1.22 29
12 02/17/2022 12:24:42 80.76, 25.80 93.69 02/17/2022 12:24:45 80.75, 25.92 93.69 2.54 3
13 02/17/2022 13:15:36 -80.75,-166.63 86.31 02/17/2022 13:15:27 -80.76,-166.67 86.32 0.85 9
14 02/17/2022 14:06:41 80.75, 0.69 93.69 02/17/2022 14:06:06 80.76, 0.78 93.69 2.04 35
15 02/17/2022 14:57:36 -80.75, 167.91 86.34 02/17/2022 14:56:49 -80.75, 167.84 86.36 1.36 47



Historial Predications of SNOs between NOAA-19 and METOP-C
